#timestamp,LO_Frequency,Hit,StdDev 
1513609215.1,286047000.8,N
1513609235.9,286047000.7,N
1513609255.7,286047000.5,N
1513609275.5,286047000.7,N
1513609295.4,286047000.0,N
1513609315.2,286047000.4,N
1513609335.0,286047000.3,N
1513609335.9,286047000.3,N
1513609355.8,286047002.1,N
1513609375.6,286047001.9,N
1513609395.5,286047002.0,N
1513609415.3,286047001.8,N
1513609435.1,286047002.7,N
1513609455.9,286047001.6,N
1513609475.7,286047003.8,N
1513609495.5,286047002.3,N
1513609515.4,286047002.5,N
1513609535.2,286047004.3,Y
1513609555.1,286047002.7,P
1513609556.0,286047002.7,P
1513609575.8,286047001.1,N
1513609595.7,286046998.5,N
1513609615.5,286047001.2,N
1513609635.3,286047000.0,N
1513609655.2,286047000.4,N
1513609675.9,286046998.7,N
1513609695.7,286046998.5,N
1513609715.6,286046999.3,N
1513609735.4,286046998.8,N
1513609755.3,286046999.4,N
1513609775.1,286047001.1,N
1513609776.0,286047001.1,N
1513609795.8,286046999.6,N
1513609815.7,286046997.1,N
1513609835.5,286046997.1,N
1513609855.4,286046997.1,N
1513609875.2,286046998.9,N
1513609895.0,286046998.9,N
1513609895.9,286046998.9,N
1513609915.8,286046997.2,N
1513609935.6,286046996.8,N
1513609955.4,286046997.9,N
1513609975.3,286046995.1,N
1513609995.1,286046996.4,N
1513610015.9,286046995.4,N
1513610035.7,286046995.2,N
1513610055.5,286046997.9,N
1513610075.4,286046999.6,N
1513610095.2,286046997.9,N
1513610115.0,286046995.6,N
1513610116.0,286046995.6,N
1513610135.8,286046995.7,N
1513610155.6,286046994.2,Y
1513610175.5,286046998.0,P
1513610195.3,286046995.5,P
1513610215.1,286046994.3,P
1513610235.9,286046991.9,Y
1513610255.7,286046997.7,P
1513610275.6,286046996.7,P
1513610295.4,286046996.5,P
1513610315.2,286046998.7,N
1513610335.1,286047001.0,N
1513610336.0,286047001.0,N
1513610355.8,286047001.1,N
1513610375.6,286046998.5,N
1513610395.5,286046999.1,N
1513610415.3,286047000.9,N
1513610435.2,286046998.5,N
1513610455.9,286046998.4,N
1513610475.7,286047001.2,N
1513610495.6,286047001.2,N
1513610515.4,286047002.8,N
1513610535.2,286047001.1,N
1513610555.1,286046998.8,N
1513610556.0,286046998.8,N
1513610575.8,286046996.6,N
1513610595.7,286046998.9,N
1513610615.5,286046996.8,N
1513610635.3,286046997.3,N
1513610655.2,286046996.8,N
1513610675.0,286046999.6,N
1513610675.9,286046999.6,N
1513610695.8,286046996.8,N
1513610715.6,286046999.3,N
1513610735.4,286046998.8,N
1513610755.3,286046999.3,N
1513610775.1,286046998.4,N
1513610795.8,286046996.7,N
1513610815.7,286046996.6,N
1513610835.5,286046999.0,N
1513610855.4,286046997.7,N
1513610875.2,286046997.2,N
1513610895.0,286046997.0,N
1513610895.9,286046997.0,N
1513610915.8,286046996.8,N
1513610935.6,286046997.7,N
1513610955.5,286046996.9,N
1513610975.3,286046995.0,Y
1513610995.1,286046997.1,P
1513611015.9,286046996.5,P
1513611035.7,286046997.0,P
1513611055.5,286046996.6,Y
1513611075.4,286046998.2,P
1513611095.2,286046998.4,P
1513611115.1,286047000.6,N
1513611116.0,286047000.6,N
1513611135.8,286047000.0,N
1513611155.6,286047000.4,N
1513611175.5,286047000.4,N
1513611195.3,286047002.6,N
1513611215.1,286047001.6,N
1513611235.9,286047000.2,N
1513611255.7,286047001.0,N
1513611275.6,286047000.7,N
1513611295.4,286047000.4,N
1513611315.2,286046998.2,N
1513611335.1,286046999.3,N
1513611336.0,286046999.3,N
1513611355.8,286046999.6,N
1513611375.7,286046999.3,N
1513611395.5,286047001.1,N
1513611415.3,286047000.5,N
1513611435.2,286046998.1,N
1513611455.0,286047001.0,N
1513611455.9,286047001.0,N
1513611475.8,286047002.4,N
1513611495.6,286046999.7,N
1513611515.4,286047002.6,N
1513611535.3,286047001.7,N
1513611555.1,286047002.1,N
1513611575.8,286047002.7,N
1513611595.7,286046999.7,N
1513611615.5,286046999.9,N
1513611635.4,286046999.8,N
1513611655.2,286047002.3,N
1513611675.0,286046999.9,N
1513611675.9,286046999.9,N
1513611695.8,286047002.3,N
1513611715.6,286047002.0,N
1513611735.4,286047002.6,N
1513611755.3,286047002.1,N
1513611775.1,286047003.9,N
1513611795.9,286047003.0,N
1513611815.7,286047004.2,N
1513611835.5,286047004.3,N
1513611855.4,286047004.3,N
1513611875.2,286047001.5,N
1513611895.0,286047001.8,N
1513611895.9,286047001.8,N
1513611915.8,286047003.2,N
1513611935.6,286047002.7,N
1513611955.5,286047000.2,N
1513611975.3,286047000.9,N
1513611995.1,286047000.6,N
1513612015.9,286047000.6,N
1513612035.7,286047002.4,N
1513612055.6,286046999.7,N
1513612075.4,286047002.4,N
1513612095.2,286047002.8,N
1513612115.1,286047001.6,N
1513612116.0,286047001.6,N
1513612135.8,286046999.8,N
1513612155.7,286047000.7,N
1513612175.5,286047000.0,N
1513612195.3,286047000.2,N
1513612215.2,286047000.0,N
1513612235.0,286047000.0,N
1513612235.9,286047000.0,N
1513612255.8,286047000.2,N
1513612275.6,286047000.5,N
1513612295.5,286047002.1,N
1513612315.3,286047002.8,N
1513612335.1,286047002.3,N
1513612355.9,286047000.6,N
1513612375.7,286047002.0,N
1513612395.5,286047001.8,N
1513612415.4,286047001.8,N
1513612435.2,286047002.7,N
1513612455.1,286047002.4,N
1513612456.0,286047002.4,N
1513612475.8,286047002.4,N
1513612495.6,286047000.2,N
1513612515.5,286047002.3,N
1513612535.3,286047002.2,N
1513612555.2,286047002.1,N
1513612575.9,286047003.8,Y
1513612595.7,286047000.0,P
1513612615.6,286047002.5,P
1513612635.4,286047001.6,N
1513612655.3,286047004.4,Y
1513612675.1,286047000.6,P
1513612676.0,286047000.6,N
1513612695.8,286047000.3,N
1513612715.7,286047000.1,N
1513612735.5,286047002.8,Y
1513612755.3,286047000.1,P
1513612775.2,286046999.8,N
1513612795.0,286047001.5,P
1513612795.9,286047001.5,N
